Location: Unspecified
(0.0000°N, 0.0000°E)
Time: 14:33:09
(UTC+00:00)

CZ-3C DEB - Pass Details

Date: 14 February 2026
Orbit: 380 x 28980 km, 20.3° (Epoch: 21 March)

Event Time Altitude Azimuth Distance (km) Brightness Sun altitude
Rises 17:53:44 0° 260° (W) 11,858 ? 5.0°
Reaches altitude 10° 18:01:08 10° 262° (W) 12,666 ? 3.2°
Enters shadow 00:33:04 42° 308° (NW) 12,316 ? -76.4°
